Location: Berneville
(50.2664°N, 2.6713°E)
Time: 13:11:07
(UTC+00:00)

Daily predictions for brighter satellites

Satellite Brightness Start Highest point End
(mag) Time Altitude Azimuth Time Altitude Azimuth Time Altitude Azimuth
NOSS 3-1 (C) 4.1 17:03:09 10° NW 17:10:27 85° NE 17:19:04 10° SE
NOAA 11 4.2 17:05:19 10° SSE 17:10:48 77° ENE 17:16:19 10° NNW
AQUARIUS 4.2 17:07:06 10° SSE 17:11:35 85° ENE 17:16:07 10° NNW
COSMO-SKYMED 1 3.7 17:09:26 10° NE 17:13:01 25° E 17:16:35 10° SSE
BREEZE-M DEB (TANK) 1.7 17:12:01 10° W 17:14:32 79° S 17:16:49 10° E
Aureole 3 2.6 17:13:13 10° N 17:16:21 61° ENE 17:19:17 10° SSE
Cosmos 1937 Rocket 4.4 17:11:58 10° SSE 17:16:33 31° E 17:21:10 10° NE
Okean 1-7 Rocket 3.6 17:13:58 10° S 17:18:32 80° E 17:23:08 10° NNE
USA 290 3.2 17:17:32 10° N 17:20:17 26° ENE 17:23:02 10° ESE
NOSS 2-1 (C) 3.3 17:20:46 10° SSW 17:23:57 45° SE 17:27:18 10° NE
Cosmos 1833 Rocket 2.9 17:18:35 10° NNW 17:24:03 49° NE 17:29:29 10° SE
H-2A R/B 2.8 17:24:53 10° ESE 17:29:19 31° ENE 17:33:52 10° N
NOSS 2-1 (D) 3.1 17:26:38 10° SSW 17:29:52 52° SE 17:33:06 11° NE
Meteor 1-21 Rocket 4.2 17:24:42 10° S 17:30:10 66° E 17:35:44 10° NNE
Cosmos 2344 4.3 17:21:17 10° NW 17:30:10 73° NE 17:42:31 10° SE
H-2A R/B 2.0 17:26:03 10° NNE 17:30:28 80° ESE 17:34:46 10° SSW
Cosmos 1939 Rocket 2.8 17:27:18 10° SSE 17:31:21 68° ENE 17:35:22 10° N
Helios 1A Rocket 4.1 17:28:40 10° ESE 17:31:52 22° ENE 17:35:04 10° N
USA 229 DEB 3.9 17:24:42 10° NW 17:31:59 85° NE 17:39:40 10° SE
USA 229 3.9 17:24:49 10° NW 17:32:05 84° NE 17:39:47 10° SE
Cosmos 389 Rocket 4.5 17:31:10 10° NE 17:32:01 11° NE 17:32:01 11° NE
CZ-3B R/B 1.6 17:31:19 10° WNW 17:33:39 90° WNW 17:39:42 10° ESE
Cosmos 44 3.4 17:29:05 10° SW 17:33:56 81° SE 17:39:09 10° NE
Cosmos 1602 Rocket 3.8 17:30:10 10° SSE 17:34:21 47° E 17:38:35 10° NNE
SeaSat 1 3.4 17:29:38 10° NNE 17:34:23 48° NW 17:39:06 10° SW
Cosmos 2026 Rocket 4.3 17:29:58 10° SSE 17:35:43 43° E 17:41:35 10° NNE
Feng Yun 1-1 Rocket 4.2 17:31:19 10° SSE 17:36:46 68° ENE 17:42:24 10° NNW
Cosmos 2112 Rocket 4.2 17:31:35 10° NNW 17:36:50 79° WSW 17:42:01 10° SSE
SJ 16-02 1.9 17:32:55 10° SW 17:37:16 60° WNW 17:41:38 10° NNE
Cosmos 990 Rocket 3.9 17:35:35 10° SSW 17:40:45 72° ESE 17:45:56 10° NNE
YAOGAN 1 3.2 17:36:54 10° SE 17:40:46 33° ENE 17:44:40 10° N
Cosmos 1689 Rocket 4.0 17:41:35 13° ESE 17:41:35 13° ESE 17:42:27 10° SE
Cosmos 1553 Rocket 4.5 17:35:01 10° N 17:40:59 39° ENE 17:46:51 10° SE
Aureole 3 Rocket 2.8 17:38:58 10° N 17:42:03 43° ENE 17:45:45 10° SSE
Cosmos 1844 Rocket 3.2 17:36:51 10° SW 17:42:27 61° WNW 17:48:04 10° NNE
H-2A R/B 4.1 17:38:54 10° SSW 17:42:50 40° W 17:46:57 10° NNW
COSMOS 2406 3.2 17:37:41 10° NNW 17:43:31 72° ENE 17:49:15 10° SE
Cosmos 2082 Rocket 2.6 17:38:23 10° NNW 17:43:49 41° NE 17:49:10 10° ESE
Cosmos 1818 4.2 17:38:47 10° WSW 17:44:07 53° NW 17:49:29 10° NE
Cosmos 1844 4.1 17:40:48 10° SW 17:46:28 69° WNW 17:52:16 10° NNE
NOSS 3-1 (A) 4.1 17:40:15 10° NW 17:47:37 88° NE 17:56:15 10° SE
Cosmos 1703 3.1 17:44:28 10° S 17:48:19 75° E 17:52:12 10° NNE
X-37B 2.3 17:45:54 10° WSW 17:48:42 27° S 17:51:28 10° SE
Cosmos 1825 Rocket 4.4 17:45:41 10° SSE 17:49:29 29° E 17:53:20 10° NNE
IRS-1C Rocket 4.1 17:45:05 10° SSE 17:50:16 65° ENE 17:55:30 10° N
Cosmos 1812 Rocket 3.5 17:46:51 10° N 17:51:16 82° E 17:55:36 10° SSE
ISS -3.7 17:48:24 10° W 17:51:47 68° N 17:53:50 22° ENE
ATLAS 2AS CENTAUR R/B 4.1 17:48:11 10° WNW 17:55:02 31° N 18:00:54 12° NE
Okean O Rocket 3.0 17:51:59 10° S 17:56:12 43° W 18:00:26 10° NNW
ATLAS 5 CENTAUR R/B 3.6 17:53:54 10° WNW 17:57:17 20° NNW 18:00:57 10° NE
Iridium 4 Rocket 3.5 17:54:09 10° N 17:59:35 64° E 18:04:30 10° SSE
CZ-4 R/B 1.4 17:56:26 10° SSE 18:00:21 55° ENE 18:04:14 10° N
ERS-2 2.7 17:58:38 15° NE 18:01:19 36° E 18:04:41 10° SSE
SKYMED 2 3.5 17:57:00 10° NNE 18:01:21 70° ESE 18:05:41 10° S
Cosmos 2195 Rocket 4.5 17:56:58 10° S 18:03:17 77° E 18:09:38 10° NNE
CSL-04 Rocket 4.1 17:59:48 10° SE 18:04:53 42° ENE 18:10:03 10° N
CZ-4C R/B 3.9 18:02:27 10° NW 18:07:28 26° N 18:11:46 15° NE
S3M 4.3 18:01:46 10° N 18:07:32 41° ENE 18:13:18 10° SE
Okean-O 2.6 18:03:29 10° SSE 18:07:52 61° ENE 18:12:15 10° N
USA 234 3.7 18:05:52 18° ENE 18:10:33 50° N 18:16:48 10° WNW
Ariane Rocket 4.4 18:11:25 19° NE 18:11:25 19° NE 18:14:33 10° NNE
Cosmos 1428 Rocket 4.4 18:05:00 10° S 18:11:17 74° E 18:17:35 10° NNE
Cosmos 1340 2.8 18:08:06 10° SSW 18:11:52 75° WNW 18:15:38 10° N
Cosmos 1346 Rocket 3.0 18:08:38 10° S 18:12:23 45° E 18:15:11 17° NNE
Cosmos 2278 Rocket 2.3 18:07:09 10° S 18:12:39 54° ESE 18:17:11 15° NE
Cosmos 858 Rocket 4.4 18:09:24 10° SSW 18:14:41 83° ESE 18:19:59 10° NNE
Cosmos 1953 Rocket 4.1 18:11:58 10° SSE 18:15:55 35° E 18:17:58 22° NE
CZ-2C R/B 3.5 18:10:57 10° S 18:16:28 76° WSW 18:22:16 10° NNW
SAR-Lupe-4 3.8 18:17:50 29° NE 18:19:18 47° E 18:22:45 10° S
Cosmos 2292 Rocket 4.0 18:16:29 10° SSE 18:20:38 33° E 18:20:41 33° E
Cosmos 405 3.7 18:18:01 10° NNW 18:21:30 55° W 18:24:56 10° S
COSMOS 2455 4.3 18:16:47 10° W 18:22:03 30° NW 18:27:21 10° NNE
Cosmos 44 Rocket 4.2 18:18:36 10° S 18:22:48 28° ESE 18:23:19 28° ESE
NOSS 2-1 (E) 3.5 18:21:50 10° WSW 18:25:05 54° NW 18:26:46 27° NNE
TELKOM 3 4.0 18:26:50 10° W 18:28:35 39° SW 18:28:35 39° SW
Cosmos 1869 3.4 18:25:58 10° N 18:29:45 46° ENE 18:30:11 43° E
ARGOS 3.1 18:24:40 10° SSE 18:29:59 67° ENE 18:35:20 10° N
NOSS 2-2 (D) 4.5 18:25:41 10° NW 18:30:34 50° NE 18:33:29 29° E
Meteor 2-19 Rocket 4.4 18:25:58 10° S 18:32:08 82° E 18:38:19 10° NNE
PSLV R/B 3.8 18:28:25 10° NNE 18:32:40 74° ESE 18:36:51 10° S
SAR-Lupe-1 3.9 18:34:05 37° NNE 18:35:23 73° ESE 18:38:57 10° S
Cosmos 1898 Rocket 4.2 18:30:37 10° SW 18:35:44 52° WNW 18:40:51 10° NNE
CZ-4B R/B 2.8 18:33:10 10° N 18:36:16 37° WNW 18:39:16 10° SW
Cosmos 372 Rocket 3.9 18:31:09 10° SSW 18:36:19 71° ESE 18:39:58 20° NNE
Cosmos 468 4.4 18:31:39 10° NNW 18:36:55 69° ENE 18:41:13 15° SE
CZ-2C R/B 3.1 18:33:46 18° NE 18:37:37 41° E 18:42:52 10° SSE
Cosmos 494 Rocket 4.0 18:35:48 10° NNW 18:40:51 53° ENE 18:42:29 38° ESE
MOS 1 Rocket 3.7 18:39:56 10° N 18:44:08 55° WNW 18:48:21 10° SSW
Cosmos 2150 Rocket 4.2 18:40:42 10° S 18:45:36 45° ESE 18:45:58 44° E
Cosmos 1048 Rocket 3.8 18:40:45 10° NNW 18:45:55 79° ENE 18:49:36 19° SSE
Cosmos-2242 3.8 18:41:56 10° NNW 18:46:07 52° W 18:50:17 10° S
COSMO-SKYMED 1 3.8 18:45:14 10° N 18:49:20 41° WNW 18:53:25 10° SW
Meteor 1-11 4.5 18:46:39 10° SSW 18:52:18 69° WNW 18:57:55 10° N
Cosmos 1758 Rocket 4.5 18:50:57 10° SSW 18:55:17 50° WNW 18:59:41 10° N
Cosmos 1937 Rocket 4.5 18:53:13 10° SW 18:58:20 47° WNW 19:03:19 11° NNE
SL-08 RB Rocket 3.5 18:59:18 28° SSE 19:01:39 88° ENE 19:06:10 10° NNW
CSL-04 Debris 4.4 18:58:30 10° S 19:03:52 70° WSW 19:09:16 10° NNW
Cosmos 2221 3.8 19:01:24 10° N 19:03:42 29° N 19:03:42 29° N
Helios 1A Rocket 3.9 19:02:45 10° S 19:06:45 46° W 19:10:46 10° NNW
Cosmos 389 Rocket 4.0 19:04:04 10° NNW 19:05:55 29° NNW 19:05:55 29° NNW
Cosmos 1833 Rocket 4.3 19:02:48 10° NW 19:07:49 34° WSW 19:12:48 10° S
H-2A R/B 3.1 19:03:42 10° S 19:08:34 45° W 19:13:36 10° NNW
Cosmos 1125 Rocket 4.1 19:05:10 10° S 19:08:41 39° SSE 19:08:41 39° SSE
Cosmos 1809 Rocket 4.3 19:04:42 10° S 19:10:48 76° E 19:16:59 10° NNE
Cosmos 2298 Rocket 3.9 19:07:33 10° SSW 19:12:52 80° ESE 19:13:35 66° NE
Cosmos 2266 Rocket 3.8 19:08:46 10° S 19:14:59 74° E 19:21:06 10° NNE
SJ 16-02 4.3 19:15:34 10° WNW 19:16:50 11° NW 19:18:06 10° NNW
YAOGAN 1 4.4 19:13:02 10° SSW 19:16:53 31° W 19:20:45 10° NNW
NOSS 2-2 (C) 4.3 19:13:30 10° NW 19:18:44 86° NE 19:20:07 58° SE
X-37B 3.7 19:23:17 10° SW 19:23:54 12° SW 19:23:54 12° SW
In-Cosmos 22 Rocket 4.2 19:18:55 10° SSW 19:24:42 83° WNW 19:29:34 15° N
Cosmos 2082 Rocket 3.3 19:22:34 10° NW 19:27:57 43° WSW 19:33:16 10° S
ISS -1.4 19:25:20 10° WNW 19:26:49 24° WNW 19:26:49 24° WNW
Cosmos 1241 Rocket 4.4 19:26:09 10° SSW 19:32:39 81° SE 19:33:16 73° ENE
CZ-4 R/B 4.3 19:33:09 10° SW 19:35:42 16° W 19:38:14 10° NW
MetOp-A 4.1 19:37:46 78° W 19:37:46 78° W 19:43:05 10° NNW
Meteor 2-21 4.4 19:34:31 10° SSW 19:40:37 79° W 19:46:48 10° N
ATLAS 5 CENTAUR R/B 3.9 19:39:53 10° NW 19:42:29 20° N 19:42:29 20° N
Cosmos 2315 Rocket 4.0 19:39:07 10° NNW 19:45:22 78° W 19:46:33 60° SSW
ATLAS 2AS CENTAUR R/B 3.7 19:41:14 10° NW 19:48:10 35° NNE 19:48:21 35° NNE
Ariane Rocket 4.2 19:51:36 35° NNW 19:51:36 35° NNW 19:54:32 10° NNW
IRS-1A Rocket 4.5 19:51:16 73° NW 19:51:16 73° NW 19:56:40 10° NNW
USA 234 3.4 19:53:13 61° NNE 19:53:13 61° NNE 19:59:31 10° WNW
Cosmos 2278 Rocket 3.6 19:51:52 10° WSW 19:57:01 34° NW 19:59:05 26° N
CZ-4C R/B 3.6 19:51:44 10° NW 19:56:57 37° N 19:56:57 37° N
USA 281 4.1 20:04:50 38° N 20:04:50 38° N 20:09:00 10° NNW
CZ-2C R/B 4.0 20:15:09 24° NNW 20:17:52 38° WNW 20:23:01 10° SW
